CZ-6A DEB, 54549

Orbit data source: Space-Track

CZ-6A DEB, 54549 is space debris in SSO originally from a launch on Fri, 11 Nov 2022 UTC launched from the Taiyaun Space Center, China (TSC). Debris objects in space refer to the collection of defunct objects orbiting the Earth. Examples of debris include non-operational satellites, rocket bodies, and fragments generated from explosions, collisions, or faulty payload assembly.

Loading next visibility...
Identifier
54549, 2022-151KZ
Orbit
SSO
Country
Flag of CNCN / PRC
Related business
Manufacturer
SAST
Mission
Spacecraft
Bus & Motor
Unknown
Mass
Unknown
Launch date (UTC)
2022-11-11 (4 years ago)
Launch vehicle
Unknown
Launch site
Taiyaun Space Center, China (TSC)
Object type
Payload
Rocket body
Debris
Shape & HBR
Unknown shape, 0.1 m
Radar Cross Section
Medium (>0.1 m² and <1 m²)

Expand to show TLE details & history
Last TLE update: 1 week ago

TLE from 1 week ago
0 CZ-6A DEB
1 54549U 22151KZ  26155.05714796  .00001937  00000-0  54059-3 0  9992
2 54549  98.5558 188.4615 0108145  16.4073 344.0573 14.44046433186882
Epoch: 2026-06-04T01:22Z
TLE epoch observation values (Epoch: 2026-06-04T01:22:17.583Z)
Latitude
-0.00008°
Longitude
-84.61863°
Altitude
674.09 km
Speed
7.559 km/s
True Right ascension
12h 33m 50s
True Declination
0° 00' 00"
Sunlit
Object was in daylight at epoch
Visualization orbit readout
Latitude
Unknown
Longitude
Unknown
Altitude
Unknown
Speed
Unknown
Apparent Right ascension
Unknown
Apparent Declination
Unknown
Sunlit
N/A
Visualization observer readout
Local Sidereal Time
02:03:17
Azimuth
Unknown
Elevation
Unknown
Doppler factor
Unknown
Orbital elements
Apogee altitude
819.283 km
Perigee altitude
665.275 km
Semi-major axis
7,120.416 km
Eccentricity
0.01081
Inclination
98.5558°
RAAN
188.4615°
Arg. of periapsis
16.4073°
True anomaly
343.71243°
Mean anomaly
344.0573°
Eccentric anomaly
343.88532°
Mean motion
3.61231 °/min
Orbital period
99.66 mins
BSTAR
0.00054059
Loading maneuver chart data...
Computing Atmospheric mass density...
Loading historical data...
Loading historical data...
Loading historical data...
Loading historical data...
Loading historical data...
Loading historical data...
Loading historical data...

Documentation

Showing up to 5 results
|